Погода в Будене

Швеция     65°49′26″N   21°41′45″E
темп.,
°C
ветер,
м/с
пор.,
м/с
влажн.,
%
обл.,
%
осадки,
мм/ч
давл.,
гПа
погр.,
м
13 мая, чт
чт1323:00+10ю1283100 0.0 101422
02:00+9ююз1287100 0.0 101332
05:00+9в108568 0.0 101213
08:00+14вюв126191 0.0 1012358
11:00+17юв235478 0.0 1012722
14:00+20ююв145089 0.0 10111168
17:00+17сз126496 0.0 1011363
20:00+11с488280 0.0 1013371
14 мая, пт
пт1423:00+8с498897 0.0 1014398
02:00+6с51086100 0.0 1015436
05:00+5с51084100 0.0 1015475
08:00+5с51180100 0.0 1015550
11:00+7с587399 0.0 1015662
14:00+8с687199 0.0 1015737
17:00+7с5874100 0.0 1014750
20:00+6с4981100 0.0 1014598
15 мая, сб
сб1523:00+5с4108499 0.0 1014460
02:00+4с498693 0.0 1013464
05:00+4с4988100 0.0 1013417
08:00+5ссв4887100 0.0 1013415
11:00+6ссв4684100 0.0 1013446
14:00+6ссв4683100 0.0 1013511
17:00+7ссв368293 0.0 1012498
20:00+7ссв4784100 0.0 1012387
16 мая, вс
вс1623:00+5с4992100 0.0 1007390
02:00+4с41092100 0.1 1007410
05:00+4с4991100 0.0 1006410
08:00+5с41088100 0.0 1006409
11:00+5с4986100 0.0 1007425
14:00+6с3786100 0.1 1007507
17:00+5с3789100 0.1 1007449
20:00+5ссз2591100 0.2 1008309
17 мая, пн
пн1723:00+4з1293100 0.1 1010121
02:00+4зсз129385 0.1 101177
05:00+4з1192100 0.0 101176
08:00+7зюз017897 0.0 1011390
11:00+12в116261 0.0 1011849
14:00+14в3356100 0.0 1010993
17:00+10в2573100 0.1 1009274
20:00+9св41095100 3.8 1007513